Change the Weather History Date:

Friday, October 26, 2012

  Actual Average (KDVL) Record (KDVL)
Temperature  
Mean Temperature 28 °F -  
Max Temperature 32 °F 52 °F 77 °F (1955)
Min Temperature 24 °F 32 °F 9 °F (1976)
Degree Days  
Heating Degree Days 37    
Moisture  
Dew Point 19 °F    
Average Humidity 71    
Maximum Humidity 86    
Minimum Humidity 51    
Precipitation  
Precipitation 0.00 in - - ()
Sea Level Pressure  
Sea Level Pressure 30.16 in    
Wind  
Wind Speed 20 mph (WNW)    
Max Wind Speed 30 mph    
Max Gust Speed 39 mph    
Visibility 10 miles    
Events      
Averages and records for this station are not official NWS values.
T = Trace of Precipitation, MM = Missing Value Source: NWS Daily Summary

Daily Weather History Graph

Daily Weather History Graph

Search for Another Location

Airport or City:

Trip Planner

Search our weather history database for the weather conditions in past years. The results will help you decide how hot, cold, wet, or windy it might be!

Date:

Astronomy

Oct. 26, 2012 Rise Set
Actual Time 8:11 AM CDT 6:22 PM CDT
Civil Twilight 7:39 AM CDT 6:55 PM CDT
Nautical Twilight 7:02 AM CDT 7:31 PM CDT
Astronomical Twilight 6:25 AM CDT 8:08 PM CDT
Moon 4:49 PM CDT (10/26) 4:56 AM CDT (10/26)
Length of Visible Light 11h 16m
Length of Day
10h 10m
Waxing Gibbous, 91% of the Moon is Illuminated
Oct 26
Waxing Gibbous
Oct 29
Full
Nov 6
Last Quarter
Nov 13
New
Nov 20
First Quarter

Hourly Weather History & Observations

Time (CDT) Temp. Windchill Dew Point Humidity Pressure Visibility Wind Dir Wind Speed Gust Speed Precip Events Conditions
12:55 AM 30.2 °F 17.1 °F 23.0 °F 75% 30.06 in 10.0 mi WNW 21.9 mph 29.9 mph N/A   Mostly Cloudy
1:15 AM 30.2 °F 17.4 °F 23.0 °F 75% 30.07 in 10.0 mi WNW 20.7 mph 32.2 mph N/A   Overcast
1:35 AM 30.2 °F 17.4 °F 23.0 °F 75% 30.08 in 10.0 mi WNW 20.7 mph 27.6 mph N/A   Overcast
1:55 AM 30.2 °F 17.4 °F 23.0 °F 75% 30.08 in 10.0 mi WNW 20.7 mph - N/A   Overcast
2:15 AM 28.4 °F 15.1 °F 23.0 °F 80% 30.09 in 10.0 mi WNW 20.7 mph 28.8 mph N/A   Overcast
2:35 AM 28.4 °F 15.1 °F 21.2 °F 74% 30.09 in 10.0 mi WNW 20.7 mph 29.9 mph N/A   Mostly Cloudy
2:55 AM 26.6 °F 14.3 °F 21.2 °F 80% 30.10 in 10.0 mi WNW 16.1 mph 20.7 mph N/A   Clear
3:15 AM 26.6 °F 13.1 °F 21.2 °F 80% 30.10 in 10.0 mi WNW 19.6 mph - N/A   Clear
3:35 AM 24.8 °F 11.9 °F 21.2 °F 86% 30.11 in 10.0 mi WNW 16.1 mph 24.2 mph N/A   Clear
3:55 AM 24.8 °F 12.4 °F 21.2 °F 86% 30.11 in 10.0 mi WNW 15.0 mph - N/A   Clear
4:15 AM 24.8 °F 11.5 °F 21.2 °F 86% 30.11 in 10.0 mi WNW 17.3 mph 21.9 mph N/A   Clear
4:35 AM 24.8 °F 11.1 °F 21.2 °F 86% 30.12 in 10.0 mi WNW 18.4 mph - N/A   Mostly Cloudy
4:55 AM 24.8 °F 10.0 °F 19.4 °F 80% 30.12 in 10.0 mi WNW 21.9 mph 29.9 mph N/A   Overcast
5:35 AM 26.6 °F 12.4 °F 21.2 °F 80% 30.12 in 10.0 mi WNW 21.9 mph 31.1 mph N/A   Overcast
5:55 AM 26.6 °F 13.1 °F 19.4 °F 74% 30.12 in 10.0 mi WNW 19.6 mph 31.1 mph N/A   Overcast
6:15 AM 26.6 °F 13.4 °F 21.2 °F 80% 30.13 in 10.0 mi WNW 18.4 mph 32.2 mph N/A   Overcast
6:35 AM 26.6 °F 13.8 °F 23.0 °F 86% 30.13 in 10.0 mi WNW 17.3 mph 23.0 mph N/A   Overcast
6:55 AM 26.6 °F 12.0 °F 21.2 °F 80% 30.13 in 10.0 mi WNW 23.0 mph 28.8 mph N/A   Overcast
7:15 AM 26.6 °F 12.4 °F 23.0 °F 86% 30.13 in 10.0 mi WNW 21.9 mph 27.6 mph N/A   Overcast
7:35 AM 26.6 °F 12.4 °F 23.0 °F 86% 30.14 in 10.0 mi WNW 21.9 mph 28.8 mph N/A   Overcast
7:55 AM 26.6 °F 12.7 °F 21.2 °F 80% 30.14 in 10.0 mi WNW 20.7 mph 26.5 mph N/A   Overcast
8:15 AM 26.6 °F 13.1 °F 21.2 °F 80% 30.15 in 10.0 mi WNW 19.6 mph 27.6 mph N/A   Overcast
8:35 AM 26.6 °F 12.4 °F 19.4 °F 74% 30.16 in 10.0 mi WNW 21.9 mph 27.6 mph N/A   Overcast
8:55 AM 26.6 °F 12.7 °F 19.4 °F 74% 30.17 in 10.0 mi WNW 20.7 mph 25.3 mph N/A   Overcast
9:15 AM 26.6 °F 12.4 °F 19.4 °F 74% 30.17 in 10.0 mi WNW 21.9 mph 28.8 mph N/A   Overcast
9:35 AM 26.6 °F 12.4 °F 19.4 °F 74% 30.18 in 10.0 mi WNW 21.9 mph 28.8 mph N/A   Overcast
9:55 AM 26.6 °F 12.7 °F 19.4 °F 74% 30.19 in 10.0 mi WNW 20.7 mph - N/A   Overcast
10:15 AM 26.6 °F 11.7 °F 19.4 °F 74% 30.19 in 10.0 mi WNW 24.2 mph 33.4 mph N/A   Mostly Cloudy
10:35 AM 26.6 °F 12.4 °F 19.4 °F 74% 30.19 in 10.0 mi WNW 21.9 mph 27.6 mph N/A   Overcast
10:55 AM 28.4 °F 14.1 °F 17.6 °F 64% 30.19 in 10.0 mi WNW 24.2 mph 34.5 mph N/A   Overcast
11:15 AM 28.4 °F 14.1 °F 19.4 °F 69% 30.19 in 10.0 mi WNW 24.2 mph 31.1 mph N/A   Mostly Cloudy
11:35 AM 28.4 °F 14.1 °F 17.6 °F 64% 30.19 in 10.0 mi WNW 24.2 mph 32.2 mph N/A   Mostly Cloudy
11:55 AM 28.4 °F 13.5 °F 17.6 °F 64% 30.19 in 10.0 mi WNW 26.5 mph 34.5 mph N/A   Mostly Cloudy
12:15 PM 30.2 °F 16.2 °F 17.6 °F 60% 30.19 in 10.0 mi WNW 25.3 mph 32.2 mph N/A   Mostly Cloudy
12:35 PM 28.4 °F 13.3 °F 19.4 °F 69% 30.19 in 10.0 mi WNW 27.6 mph 33.4 mph N/A   Mostly Cloudy
12:55 PM 30.2 °F 16.5 °F 19.4 °F 64% 30.19 in 10.0 mi WNW 24.2 mph 32.2 mph N/A   Scattered Clouds
1:15 PM 30.2 °F 15.2 °F 17.6 °F 60% 30.19 in 10.0 mi WNW 29.9 mph 35.7 mph N/A   Mostly Cloudy
1:35 PM 32.0 °F 18.4 °F 17.6 °F 55% 30.18 in 10.0 mi WNW 26.5 mph 31.1 mph N/A   Mostly Cloudy
1:55 PM 32.0 °F 17.6 °F 17.6 °F 55% 30.18 in 10.0 mi NW 29.9 mph 38.0 mph N/A   Mostly Cloudy
2:15 PM 32.0 °F 18.9 °F 15.8 °F 51% 30.18 in 10.0 mi WNW 24.2 mph 33.4 mph N/A   Scattered Clouds
2:35 PM 32.0 °F 18.6 °F 17.6 °F 55% 30.17 in 10.0 mi WNW 25.3 mph 39.1 mph N/A   Partly Cloudy
2:55 PM 30.2 °F 16.8 °F 19.4 °F 64% 30.18 in 10.0 mi WNW 23.0 mph 28.8 mph N/A   Mostly Cloudy
3:15 PM 30.2 °F 16.8 °F 19.4 °F 64% 30.17 in 10.0 mi WNW 23.0 mph 27.6 mph N/A   Overcast
3:35 PM 30.2 °F 16.8 °F 19.4 °F 64% 30.17 in 10.0 mi WNW 23.0 mph 27.6 mph N/A   Overcast
3:55 PM 30.2 °F 17.8 °F 19.4 °F 64% 30.18 in 10.0 mi West 19.6 mph 26.5 mph N/A   Overcast
4:15 PM 30.2 °F 18.9 °F 21.2 °F 69% 30.18 in 10.0 mi West 16.1 mph 25.3 mph N/A   Overcast
4:35 PM 30.2 °F 17.8 °F 17.6 °F 60% 30.18 in 10.0 mi WNW 19.6 mph 25.3 mph N/A   Overcast
4:55 PM 30.2 °F 17.4 °F 15.8 °F 55% 30.18 in 10.0 mi WNW 20.7 mph 26.5 mph N/A   Overcast
5:15 PM 30.2 °F 17.8 °F 17.6 °F 60% 30.18 in 10.0 mi WNW 19.6 mph 26.5 mph N/A   Overcast
5:35 PM 30.2 °F 18.1 °F 17.6 °F 60% 30.18 in 10.0 mi WNW 18.4 mph 21.9 mph N/A   Overcast
5:55 PM 28.4 °F 16.2 °F 15.8 °F 59% 30.18 in 10.0 mi WNW 17.3 mph 23.0 mph N/A   Overcast
6:15 PM 28.4 °F 16.2 °F 17.6 °F 64% 30.18 in 10.0 mi WNW 17.3 mph - N/A   Overcast
6:35 PM 28.4 °F 16.6 °F 19.4 °F 69% 30.19 in 10.0 mi WNW 16.1 mph 21.9 mph N/A   Overcast
6:55 PM 28.4 °F 18.5 °F 19.4 °F 69% 30.20 in 10.0 mi WNW 11.5 mph - N/A   Overcast
7:15 PM 28.4 °F 17.5 °F 19.4 °F 69% 30.20 in 10.0 mi WNW 13.8 mph - N/A   Overcast
7:35 PM 26.6 °F 15.7 °F 17.6 °F 69% 30.20 in 10.0 mi WNW 12.7 mph - N/A   Overcast
7:55 PM 26.6 °F 15.2 °F 19.4 °F 74% 30.20 in 10.0 mi West 13.8 mph - N/A   Overcast
8:15 PM 26.6 °F 15.7 °F 19.4 °F 74% 30.21 in 10.0 mi West 12.7 mph - N/A   Overcast
8:35 PM 26.6 °F 15.2 °F 17.6 °F 69% 30.21 in 10.0 mi WNW 13.8 mph - N/A   Overcast
8:55 PM 26.6 °F 15.2 °F 17.6 °F 69% 30.21 in 10.0 mi West 13.8 mph - N/A   Overcast
9:15 PM 26.6 °F 15.2 °F 17.6 °F 69% 30.20 in 10.0 mi WNW 13.8 mph - N/A   Overcast
9:35 PM 26.6 °F 15.2 °F 17.6 °F 69% 30.20 in 10.0 mi WNW 13.8 mph - N/A   Overcast
9:55 PM 26.6 °F 15.7 °F 17.6 °F 69% 30.20 in 10.0 mi WNW 12.7 mph - N/A   Overcast
10:35 PM 26.6 °F 17.5 °F 17.6 °F 69% 30.21 in 10.0 mi WNW 9.2 mph - N/A   Overcast
10:55 PM 26.6 °F 16.2 °F 17.6 °F 69% 30.21 in 10.0 mi WNW 11.5 mph - N/A   Overcast
11:15 PM 26.6 °F 15.2 °F 17.6 °F 69% 30.21 in 10.0 mi WNW 13.8 mph - N/A   Overcast
11:35 PM 26.6 °F 15.7 °F 17.6 °F 69% 30.20 in 10.0 mi WNW 12.7 mph - N/A   Overcast
11:55 PM 26.6 °F 16.8 °F 17.6 °F 69% 30.20 in 10.0 mi WNW 10.4 mph - N/A   Overcast